Temp
-6 -6 -6 -7 -7 -7 -7 -7 -7 -7 -7 -7 -7 -8 -7 -6 -5 -5 -4 -4 -4 -4
-6 -6 -7 -7 -7 -7 -7 -8 -8 -8 -8 -8 -8 -8 -8 -9 -8 -7 -6 -5 -4 -4
-8 -8 -7 -8 -7 -7 -8 -8 -8 -9 -9 -9 -9 -9 -9 -9 -9 -9 -8 -7 -6 -5
-9 -8 -9 -9 -9 -9 -9 -9 -9 -9 -10 -10 -10 -10 -10 -10 -10 -10 -10 -9 -8 -7
-9 -9 -10 -10 -10 -10 -10 -10 -10 -10 -10 -11 -11 -11 -11 -11 -11 -11 -10 -10 -10 -9
-9 -10 -10 -10 -10 -10 -11 -11 -11 -11 -11 -11 -12 -12 -12 -11 -11 -11 -11 -11 -10 -10
-10 -10 -10 -11 -11 -12 -12 -12 -12 -12 -12 -12 -12 -12 -12 -12 -12 -11 -11 -11 -11 -10
-10 -11 -11 -11 -12 -12 -13 -13 -13 -13 -13 -12 -12 -12 -12 -12 -11 -11 -11 -11 -11 -10
-11 -11 -12 -12 -12 -13 -12 -12 -12 -12 -12 -12 -12 -12 -11 -10 -10 -10 -10 -10 -10 -10
-11 -12 -12 -12 -12 -12 -12 -12 -12 -11 -11 -11 -11 -11 -11 -11 -10 -10 -10 -10 -10 -10
-12 -12 -12 -12 -12 -12 -12 -12 -12 -12 -12 -11 -11 -11 -11 -10 -10 -10 -10 -10 -10 -10
-12 -12 -12 -12 -12 -12 -12 -12 -12 -11 -11 -11 -11 -10 -10 -10 -9 -9 -9 -9 -10 -10
-12 -12 -13 -12 -12 -12 -12 -11 -11 -12 -11 -10 -9 -9 -9 -9 -9 -9 -9 -9 -10 -9
-11 -12 -12 -12 -12 -12 -12 -12 -12 -11 -10 -9 -9 -8 -7 -7 -8 -8 -8 -9 -9 -9
Height
1532 1527 1522 1517 1512 1506 1501 1498 1495 1492 1488 1486 1483 1481 1479 1476 1474 1473 1472 1471 1471 1471
1526 1521 1515 1510 1505 1499 1494 1489 1485 1482 1478 1475 1472 1470 1467 1464 1463 1462 1462 1460 1460 1459
1518 1513 1508 1503 1496 1491 1485 1480 1475 1471 1467 1464 1461 1458 1456 1453 1451 1450 1450 1449 1448 1448
1510 1505 1499 1493 1487 1481 1475 1470 1464 1460 1455 1452 1449 1447 1444 1441 1439 1438 1438 1438 1438 1436
1502 1496 1490 1483 1477 1472 1464 1459 1454 1449 1443 1439 1437 1435 1432 1429 1427 1427 1425 1425 1426 1424
1494 1487 1480 1473 1466 1460 1453 1447 1441 1437 1431 1426 1423 1421 1418 1417 1414 1413 1412 1412 1412 1411
1485 1478 1470 1462 1455 1448 1443 1435 1429 1424 1418 1413 1409 1406 1404 1402 1400 1398 1397 1397 1398 1398
1476 1468 1460 1451 1444 1437 1430 1423 1417 1410 1404 1399 1395 1392 1390 1387 1385 1383 1381 1381 1381 1382
1468 1459 1450 1441 1433 1425 1417 1410 1403 1396 1390 1384 1379 1376 1375 1375 1372 1369 1366 1363 1365 1366
1460 1449 1440 1431 1422 1413 1405 1398 1390 1383 1376 1368 1363 1360 1358 1358 1356 1353 1350 1349 1351 1353
1452 1441 1431 1422 1412 1403 1395 1386 1376 1368 1361 1353 1346 1344 1341 1340 1338 1335 1333 1333 1336 1339
1444 1433 1422 1412 1402 1392 1382 1373 1364 1356 1347 1340 1331 1327 1323 1321 1318 1316 1314 1316 1319 1323
1437 1426 1415 1404 1393 1382 1373 1362 1354 1344 1335 1326 1316 1308 1302 1300 1299 1296 1296 1300 1302 1307
1430 1419 1408 1396 1385 1375 1364 1354 1344 1333 1322 1314 1305 1293 1283 1276 1277 1278 1280 1283 1287 1290
Wind_Speed
33 35 37 38 39 41 41 41 40 39 38 38 38 36 37 37 37 36 36 36 37 38
34 35 38 39 39 41 42 43 42 41 41 41 40 39 38 38 39 38 38 38 38 39
37 38 39 40 41 42 43 43 44 43 43 43 42 41 40 41 40 39 40 40 40 39
39 40 41 42 43 44 45 44 45 45 44 44 44 43 43 43 42 40 40 40 41 42
41 42 43 44 44 44 46 46 46 45 46 45 45 44 44 43 42 41 41 40 40 42
44 45 46 46 47 46 46 47 46 45 47 47 46 44 43 43 44 44 44 43 43 44
46 47 48 49 49 48 47 47 48 48 48 48 48 48 47 46 46 46 46 45 45 45
48 49 50 50 50 49 48 49 49 49 50 50 50 50 47 47 47 48 48 48 47 46
50 51 51 50 50 50 50 49 48 49 50 50 50 45 43 44 47 50 52 54 53 51
51 52 51 51 51 50 50 49 49 50 51 52 50 46 45 44 46 51 54 56 51 48
51 52 51 50 50 50 51 52 54 54 54 55 55 48 46 46 48 51 55 57 54 50
51 52 50 51 50 52 54 55 53 52 52 52 53 48 47 48 51 54 56 56 52 51
50 49 50 49 52 53 52 51 50 50 46 44 47 52 52 50 51 53 53 50 49 46
49 48 48 51 51 51 50 49 47 47 44 46 48 53 52 45 47 50 46 47 45 46
Wind_Direction
324 322 321 320 319 317 316 315 314 311 307 305 301 296 294 290 288 286 282 278 276 275
322 321 319 318 316 315 313 312 311 307 305 302 300 298 295 291 289 286 283 279 275 273
323 322 321 318 315 313 311 310 307 305 303 300 297 295 293 289 286 282 282 280 278 274
323 323 320 317 315 313 310 308 306 304 301 297 295 292 290 287 284 278 275 274 274 273
323 323 320 317 315 314 310 308 304 302 298 295 291 288 284 280 277 274 271 269 266 267
324 323 321 319 317 314 311 308 305 301 298 295 291 287 281 278 275 271 268 267 264 265
326 324 322 320 318 314 310 305 302 299 296 292 290 286 282 277 274 272 269 266 264 262
327 326 324 321 317 313 307 304 302 298 295 291 286 281 277 274 272 271 271 268 264 261
329 327 323 320 318 315 314 312 309 304 300 296 291 283 275 270 269 267 267 267 267 265
329 325 324 323 321 320 317 315 311 307 303 299 296 289 277 271 265 263 262 261 257 256
330 327 327 326 323 321 319 314 309 303 299 296 295 286 277 271 265 262 259 258 255 251
332 330 328 327 325 323 315 311 308 306 302 296 296 292 279 271 265 261 259 256 252 249
334 333 330 330 327 322 319 314 309 308 308 310 306 307 288 274 264 259 255 254 250 245
338 335 334 333 329 324 319 317 316 319 321 321 319 314 311 289 261 254 251 245 244 245